Wind_Speed
56 56 57 57 57 57 56 57 57 57 57 57 57 58 58 58 59 58 57 56 56 56 56 55 53 53 53 53 52 51 51 51 51 51 50 50 50 50
57 57 57 58 58 57 57 57 57 57 57 57 59 59 59 59 60 60 59 58 58 57 58 57 56 55 56 54 54 54 53 53 53 53 53 52 52 52
58 58 57 57 57 57 57 57 57 57 57 57 58 59 60 60 60 61 60 60 60 59 59 60 59 58 57 56 57 57 56 56 56 56 56 55 54 53
59 59 59 58 58 57 57 57 57 57 57 57 57 58 59 60 61 61 61 61 61 61 61 62 62 61 60 58 58 59 59 58 58 58 57 57 56 55
60 60 59 59 59 58 58 58 58 58 58 58 58 59 59 60 61 62 62 63 62 62 62 63 63 63 62 61 61 61 61 60 60 60 60 59 59 58
60 60 60 60 59 59 59 59 58 59 59 60 59 60 60 61 62 63 63 63 63 63 64 64 64 64 63 63 63 63 63 62 61 61 62 62 61 61
60 59 59 59 59 59 59 59 59 59 59 60 60 60 60 60 62 63 63 63 63 62 63 64 65 65 65 65 65 65 65 64 64 63 64 64 63 63
57 57 57 57 58 59 59 59 59 59 59 59 59 60 60 60 61 62 63 63 62 62 63 64 66 66 66 66 66 66 65 66 65 65 65 65 64 64
54 55 55 55 56 57 58 59 59 59 59 60 60 59 60 60 61 61 62 62 62 62 63 64 65 66 66 66 66 67 67 66 66 65 65 65 65 65
53 53 53 54 55 55 56 57 58 59 60 60 59 59 59 59 60 60 61 61 61 61 62 63 64 65 64 65 66 66 66 66 66 65 65 65 65 65
52 51 52 52 53 54 55 56 57 57 58 59 59 59 59 59 59 60 60 59 59 59 61 63 63 63 62 63 64 65 66 66 66 65 65 66 65 65
51 51 51 52 52 53 55 56 56 56 56 57 58 58 58 58 59 59 58 58 58 57 59 60 60 61 60 61 63 64 65 65 66 66 67 67 67 66
50 50 50 50 51 52 53 54 54 54 54 55 56 57 58 58 57 57 56 56 56 56 56 57 58 58 59 59 60 61 63 64 64 65 65 66 66 67
48 48 49 50 50 51 52 53 53 53 53 53 54 55 56 56 55 55 55 55 56 55 55 55 56 56 57 57 57 57 59 61 61 61 62 63 64 65
47 48 48 49 50 50 50 50 51 51 51 52 52 52 53 54 54 54 54 54 54 53 53 53 53 53 54 55 55 55 56 56 58 59 60 62 63 64
47 47 48 49 50 50 50 49 48 49 49 49 50 50 51 52 52 52 53 53 52 51 51 51 52 52 52 53 53 53 54 54 55 56 57 58 59 60
46 47 47 47 48 48 47 47 47 47 47 47 47 48 49 49 50 51 51 51 51 50 50 50 50 52 52 52 52 52 53 52 52 53 54 54 55 56
45 45 45 46 46 46 46 45 45 45 45 45 46 47 48 48 49 50 50 49 49 49 49 49 50 51 51 51 51 50 50 50 50 50 51 52 52 52
43 43 43 44 44 44 44 44 44 44 45 45 45 47 47 47 48 48 48 47 47 47 48 48 49 50 50 49 47 48 48 48 49 49 50 50 49 49
41 42 42 42 42 43 43 44 44 44 44 44 44 45 46 46 47 47 47 46 46 46 47 47 47 47 47 46 45 46 47 47 47 47 47 47 47 47
40 41 41 41 41 42 42 43 43 43 43 43 43 43 43 44 45 45 45 45 45 45 45 45 44 45 45 45 44 44 44 45 46 46 46 46 46 45
39 39 40 40 40 40 40 41 41 42 42 42 41 41 42 42 43 43 43 43 44 44 44 44 43 43 43 43 43 43 43 43 44 45 45 45 45 44
37 38 38 39 39 39 39 39 40 40 41 41 39 39 40 40 41 41 42 42 43 44 43 43 42 42 42 42 42 42 43 43 43 43 43 44 44 43
Wind_Direction
262 262 262 262 263 264 264 263 262 259 257 257 257 257 257 256 256 257 258 258 256 255 255 255 256 257 257 257 258 259 260 261 262 262 263 265 266 266
262 262 263 263 264 264 264 264 263 261 259 257 257 257 257 257 257 257 256 256 255 254 254 255 255 256 257 258 259 259 260 260 262 262 263 264 264 265
262 262 262 263 263 263 263 263 263 262 261 259 258 257 258 258 257 257 255 255 254 253 253 254 255 256 256 258 259 259 260 260 261 261 261 262 263 263
262 262 262 262 262 262 262 263 263 262 262 261 259 259 258 258 258 257 256 256 254 253 253 254 255 255 256 258 259 260 260 260 260 261 261 262 262 262
262 262 262 261 261 261 261 262 262 262 262 262 261 260 259 259 258 257 257 255 254 254 253 254 255 255 256 257 258 259 259 259 259 261 261 261 262 262
262 262 262 262 261 261 261 261 262 262 262 262 262 262 261 261 259 258 258 255 254 254 254 255 255 256 257 257 258 259 259 259 259 260 261 261 262 262
261 261 261 261 260 261 261 262 262 262 262 262 263 263 262 261 260 259 258 256 256 256 255 255 256 256 256 257 257 259 259 259 260 261 261 261 261 261
261 261 261 261 261 261 261 261 261 262 262 263 263 263 263 262 261 259 258 256 257 257 257 256 257 257 257 257 258 259 260 260 260 261 261 261 261 261
261 261 261 261 261 261 261 261 261 262 262 263 264 264 263 262 262 260 259 258 259 258 257 257 257 258 258 258 259 260 260 261 261 261 261 260 260 260
261 261 262 262 262 262 262 262 262 262 263 264 264 263 263 262 262 261 260 260 260 259 258 258 257 258 259 260 260 260 261 261 262 262 261 261 261 260
261 262 263 262 263 263 263 263 264 264 263 263 263 263 262 262 262 261 260 261 260 259 259 259 258 258 259 260 260 261 261 262 262 261 261 261 261 261
261 262 262 262 262 262 263 263 264 264 264 263 263 262 262 261 261 260 260 260 259 259 258 259 259 259 259 260 261 261 261 262 261 261 262 262 262 262
260 261 262 263 263 264 264 265 264 264 263 263 263 261 261 261 260 260 259 260 259 259 259 259 259 260 260 260 261 261 261 261 261 262 262 262 262 263
260 261 263 264 264 265 265 265 264 264 263 263 263 261 260 260 260 259 258 259 259 259 260 259 260 260 260 261 261 262 262 263 262 263 262 262 263 263
261 261 263 263 264 265 265 265 265 264 263 262 262 261 260 259 258 257 257 258 258 259 260 260 260 260 260 261 262 262 263 264 264 264 264 264 264 264
261 262 263 264 264 264 264 264 263 263 262 262 261 260 260 259 258 257 257 258 259 259 259 259 260 261 261 262 263 264 264 265 265 265 266 266 266 266
262 262 263 263 263 263 263 263 263 263 262 262 261 260 260 259 258 258 258 259 259 259 259 260 261 261 261 263 264 264 265 265 266 266 266 266 266 266
263 264 264 264 264 263 263 263 262 262 262 261 261 260 260 259 258 259 259 259 259 259 260 261 261 261 263 264 264 264 265 265 265 265 267 267 266 266
264 265 265 265 264 263 262 262 262 261 262 261 262 261 260 259 259 258 259 259 260 260 261 262 263 263 263 263 262 264 265 264 265 266 267 267 267 267
264 265 266 265 264 263 263 262 262 262 262 262 263 262 261 260 259 258 258 260 260 260 260 261 262 263 262 261 261 263 264 265 266 266 267 267 267 267
265 266 266 265 263 263 263 262 262 262 263 262 263 263 261 260 258 258 258 259 260 260 259 260 261 261 261 261 261 261 262 264 266 267 267 268 268 267
267 267 266 265 264 264 264 263 263 263 263 263 262 261 260 258 258 258 258 258 259 259 258 259 259 261 262 263 262 262 262 263 265 266 268 269 269 268
268 268 267 266 266 265 265 264 264 263 262 261 260 260 258 257 257 257 257 257 259 258 258 258 259 261 262 263 263 263 263 263 264 265 267 268 269 270
Height
5630 5631 5632 5632 5633 5633 5634 5635 5638 5641 5644 5646 5648 5649 5650 5653 5655 5658 5660 5663 5666 5669 5672 5674 5677 5680 5682 5685 5687 5690 5692 5694 5696 5697 5698 5700 5701 5702
5614 5615 5616 5616 5617 5617 5618 5619 5620 5623 5627 5631 5631 5633 5634 5636 5638 5641 5644 5646 5649 5653 5656 5659 5662 5665 5667 5669 5672 5674 5677 5679 5681 5683 5684 5686 5687 5688
5597 5598 5599 5600 5600 5601 5601 5603 5604 5605 5609 5613 5614 5616 5617 5619 5621 5623 5626 5629 5633 5636 5640 5643 5646 5649 5651 5653 5656 5659 5661 5663 5666 5667 5669 5671 5672 5674
5581 5581 5582 5583 5584 5585 5586 5587 5588 5589 5592 5595 5598 5599 5601 5602 5604 5606 5608 5611 5615 5619 5622 5625 5629 5632 5634 5637 5640 5642 5645 5647 5649 5651 5653 5656 5657 5658
5563 5564 5565 5566 5568 5569 5570 5571 5572 5573 5575 5577 5580 5582 5583 5585 5586 5589 5591 5594 5597 5601 5604 5608 5611 5614 5617 5619 5623 5625 5627 5630 5633 5634 5636 5638 5640 5642
5546 5547 5548 5549 5551 5552 5553 5555 5556 5557 5558 5560 5562 5564 5566 5567 5568 5570 5573 5576 5579 5582 5586 5590 5593 5596 5599 5602 5606 5608 5610 5612 5614 5617 5619 5621 5623 5625
5529 5530 5531 5532 5534 5535 5537 5538 5539 5541 5542 5543 5545 5547 5549 5550 5551 5552 5555 5558 5561 5564 5567 5571 5575 5578 5580 5583 5586 5589 5591 5594 5596 5598 5600 5603 5605 5607
5512 5513 5514 5516 5517 5518 5520 5521 5523 5524 5525 5527 5528 5530 5531 5532 5533 5535 5538 5541 5545 5548 5549 5553 5555 5558 5562 5565 5567 5570 5572 5575 5577 5579 5581 5584 5586 5588
5496 5497 5498 5499 5500 5501 5503 5504 5506 5507 5509 5511 5512 5513 5514 5516 5517 5519 5520 5523 5527 5530 5531 5536 5537 5540 5543 5546 5548 5550 5553 5555 5557 5560 5562 5564 5567 5569
5481 5481 5483 5483 5484 5485 5486 5487 5489 5491 5492 5494 5496 5497 5497 5498 5500 5501 5503 5506 5509 5512 5513 5517 5520 5522 5525 5527 5529 5531 5533 5535 5537 5540 5542 5545 5547 5550
5466 5466 5467 5468 5469 5469 5470 5472 5473 5474 5474 5475 5477 5479 5480 5481 5482 5484 5486 5489 5492 5495 5496 5499 5502 5504 5506 5509 5511 5512 5514 5516 5518 5520 5523 5525 5528 5531
5451 5452 5452 5452 5453 5452 5453 5455 5456 5458 5458 5459 5460 5461 5463 5464 5465 5467 5470 5472 5475 5478 5480 5481 5483 5485 5489 5492 5493 5494 5495 5497 5499 5501 5503 5506 5508 5510
5436 5436 5437 5437 5437 5437 5438 5439 5440 5441 5441 5442 5443 5444 5446 5448 5450 5452 5453 5455 5458 5461 5463 5464 5466 5467 5470 5474 5476 5476 5477 5478 5480 5482 5484 5486 5488 5490
5421 5422 5422 5422 5422 5422 5422 5423 5423 5424 5425 5426 5427 5429 5430 5432 5434 5436 5438 5440 5441 5444 5446 5448 5449 5451 5453 5455 5458 5459 5459 5460 5462 5464 5465 5467 5469 5470
5406 5407 5407 5407 5407 5407 5407 5407 5407 5408 5409 5410 5412 5413 5415 5417 5419 5421 5423 5424 5426 5428 5430 5432 5433 5435 5436 5439 5441 5443 5443 5444 5445 5446 5447 5449 5450 5451
5392 5392 5392 5392 5392 5392 5392 5392 5392 5393 5394 5395 5397 5398 5399 5401 5403 5405 5407 5409 5411 5413 5415 5416 5417 5419 5420 5422 5424 5426 5427 5428 5429 5429 5430 5431 5432 5433
5377 5377 5378 5377 5377 5377 5377 5378 5378 5379 5380 5381 5382 5383 5384 5386 5388 5390 5393 5394 5397 5399 5401 5401 5402 5403 5405 5407 5408 5410 5411 5412 5413 5413 5414 5415 5416 5416
5363 5363 5364 5363 5363 5363 5364 5364 5364 5365 5366 5367 5368 5369 5370 5372 5374 5376 5378 5380 5382 5384 5386 5387 5387 5389 5391 5392 5393 5394 5395 5396 5397 5398 5398 5399 5401 5401
5349 5350 5350 5350 5350 5350 5350 5351 5351 5352 5352 5354 5354 5355 5356 5358 5360 5362 5364 5366 5368 5370 5371 5372 5373 5374 5376 5378 5380 5379 5380 5381 5382 5383 5383 5384 5385 5386
5336 5336 5336 5336 5336 5336 5337 5337 5338 5338 5339 5340 5341 5342 5343 5344 5346 5348 5351 5352 5354 5356 5357 5358 5359 5360 5361 5364 5366 5367 5366 5366 5367 5368 5369 5369 5370 5370
5323 5323 5322 5322 5322 5323 5323 5323 5324 5325 5325 5327 5327 5328 5329 5331 5333 5335 5337 5339 5340 5342 5343 5345 5346 5346 5347 5349 5351 5353 5353 5352 5353 5353 5354 5354 5355 5355
5310 5309 5309 5309 5309 5309 5309 5309 5310 5311 5312 5313 5314 5315 5316 5318 5320 5322 5324 5326 5327 5329 5330 5331 5332 5333 5334 5335 5337 5338 5339 5339 5339 5339 5339 5340 5339 5341
5297 5297 5296 5296 5296 5296 5296 5296 5297 5298 5299 5300 5301 5302 5304 5306 5308 5309 5311 5313 5314 5316 5317 5318 5319 5320 5321 5322 5323 5324 5325 5326 5326 5326 5327 5326 5326 5326